Погода в Кондото

Колумбия     5°07′13″N   76°26′24″W
темп.,
°C
ветер,
м/с
пор.,
м/с
влажн.,
%
обл.,
%
осадки,
мм/ч
давл.,
гПа
погр.,
м
7 мая, пт
пт701:00+21юв109729 3.0 101311
04:00+21вюв119747 0.7 101217
07:00+22юв019555 0.9 101345
10:00+26з118299 2.4 1014496
13:00+26з228389 6.1 1011773
16:00+25з129098 7.6 1010310
19:00+22ю1196100 13.6 101217
22:00+22юв119799 2.1 101419
8 мая, сб
сб801:00+21ююв119894 2.6 101319
04:00+21юв1197100 1.1 101218
07:00+22ююв1195100 2.0 101444
10:00+25зсз118676 2.4 1014402
13:00+26зюз128284 6.5 1011725
16:00+24зюз1295100 8.1 1010161
19:00+22ю1198100 16.1 101242
22:00+22ю1199100 5.2 101433
9 мая, вс
вс901:00+21ююз0099100 6.9 101331
04:00+21вюв1199100 2.4 101228
07:00+22в0197100 3.3 101348
10:00+26сз118065 0.2 1013656
13:00+28ссз1169100 1.3 10101130
16:00+26з1184100 2.1 1008346
19:00+22ююз119767 3.6 101130
22:00+22ююз119898 0.3 101255
10 мая, пн
пн1001:00+22ю1198100 1.3 101142
04:00+22св1198100 1.4 101022
07:00+22юв0097100 1.8 101165
10:00+27зсз227682 0.1 1010812
13:00+27з128160 2.9 1008665
16:00+25зсз129189 8.3 1008248
19:00+22ю1197100 13.6 101035
22:00+22вюв0198100 2.9 101231
11 мая, вт
вт1101:00+22ююв1198100 4.8 101127
04:00+21ю009898 0.6 101015
07:00+22зюз009654 0.8 101176
10:00+27зсз117934 0.7 1011719
13:00+27з128352 5.3 1009689
16:00+25зюз1390100 6.8 1008374
19:00+22ю119882 14.2 101034
22:00+22всв1199100 15.1 101257